Regional Weather Roundup
Issued by NWS

Home | Current Version | Previous Version | Text Only | Print | Product List | Glossary Off
Versions: 1 2 3 4 5 6 7 8 9 10 11 12 13 14 15 16 17 18 19 20 21 22 23 24 25 26 27 28 29 30 31 32 33 34 35 36 37 38 39 40 41 42 43 44 45 46 47 48 49 50

362
ASUS45 KCYS 300310
RWRWY

WYOMING REGIONAL WEATHER ROUNDUP
NATIONAL WEATHER SERVICE CHEYENNE WY
900 PM MDT SAT APR 29 2017

NOTE:  "FAIR" INDICATES FEW OR NO CLOUDS BELOW 12,000 FEET
WITH NO SIGNIFICANT WEATHER AND/OR OBSTRUCTIONS TO VISIBILITY.

WYZ001-300400-
YELLOWSTONE NATIONAL PARK

CITY           SKY/WX    TMP DP  RH WIND       PRES   REMARKS
LK YELLOWSTONE   N/A     27  22  81 CALM      30.19R
W YELLOWSTONE  NOT AVBL

$$
WYZ002>013-054>058-071-098>099-300400-
NORTHERN WYOMING

CITY           SKY/WX    TMP DP  RH WIND       PRES   REMARKS
JACKSON        FAIR      36  19  51 W12       30.18R WCI  27
CODY           FAIR      40  29  64 S5        30.15R
GREYBULL       FAIR      47  22  37 S8        30.14R
WORLAND        FAIR      38  29  70 S10       30.16R WCI  31
SHERIDAN       FAIR      35  29  78 SE6       30.17S WCI  30
BUFFALO        FAIR      33  22  63 S8        30.18S WCI  26
GILLETTE       FAIR      28  23  81 CALM      30.19R
HULETT         FAIR      37  21  52 S6        30.19R WCI  33
NEWCASTLE      FAIR      41  23  48 CALM      30.20R

$$
WYZ014>020-022>026-101>103-300400-
CENTRAL WYOMING

CITY           SKY/WX    TMP DP  RH WIND       PRES   REMARKS
BIG PINEY      FAIR      34  20  56 N13       30.18R WCI  25
PINEDALE       FAIR      32  21  64 NW8       30.18R WCI  25
DUBOIS         FAIR      34  18  51 CALM      30.16R
LANDER         FAIR      31  22  69 SE6       30.18R WCI  25
RIVERTON       FAIR      33  25  72 S8        30.20R WCI  26
CASPER         FAIR      35  22  58 SE6       30.19R WCI  30
DOUGLAS        FAIR      35  21  56 CALM      30.22R

$$
WYZ021-027>030-104>119-300400-
SOUTHERN WYOMING

CITY           SKY/WX    TMP DP  RH WIND       PRES   REMARKS
EVANSTON       FAIR      36  20  52 S3        30.22R
KEMMERER         N/A     32  25  74 W5        30.20R WCI  27
FORT BRIDGER   FAIR      34  25  69 SW8       30.23R WCI  27
ROCK SPRINGS   FAIR      33  19  56 E8        30.19R WCI  26
DIXON            N/A     33  22  66 N10       30.19R WCI  24
RAWLINS        FAIR      28  22  78 N7        30.19R WCI  21
SARATOGA       FAIR      30  18  59 N6        30.19R WCI  24
LARAMIE        FAIR      21  16  81 W6        30.18S WCI  13
CHEYENNE       MOCLDY    31  16  54 N7        30.18S WCI  24
TORRINGTON     FAIR      39  26  59 NW8       30.19R WCI  33
PINE BLUFFS    CLOUDY    34  23  64 NW9       30.18S WCI  26

$$




USA.gov is the U.S. government's official web portal to all federal, state and local government web resources and services.